Location: Aufkirchen
(47.9603°N, 11.3653°E)
Time: 17:31:40
(UTC+01:00)

Transit 4A - Pass Details

Date: 26 November 2020
Orbit: 864 x 980 km, 66.8° (Epoch: 26 January)

Event Time Altitude Azimuth Distance (km) Brightness Sun altitude
Rises 17:22:04 0° 324° (NW) 3,687 11.2 -9.2°
Reaches altitude 10° 17:24:39 10° 324° (NW) 2,729 10.5 -9.6°
Maximum altitude 17:31:03 82° 238° (WSW) 975 8.1 -10.6°
Drops below altitude 10° 17:37:16 10° 152° (SSE) 2,652 10.2 -11.5°
Sets 17:39:45 0° 151° (SSE) 3,576 10.8 -11.9°
